Погода в Кукушкином

Россия / Республика Крым     45°43′06″N   33°23′22″E
темп.,
°C
ветер,
м/с
пор.,
м/с
влажн.,
%
обл.,
%
осадки,
мм/ч
давл.,
гПа
погр.,
м
4 марта, чт
чт400:00+3сз22705 0.0 102822
03:00+2зюз23752 0.0 102722
06:00+2юз34870 0.0 102553
09:00+4юз48750 0.0 1024351
12:00+9юз68540 0.0 1023958
15:00+9юз810520 0.0 1020861
18:00+7юз8126629 0.0 1018656
21:00+5ююз8157714 0.0 1018529
5 марта, пт
пт500:00+5ююз916800 0.0 1017495
03:00+6юз816828 0.0 1016481
06:00+5ююз8148722 0.0 1015426
09:00+7ююз9148056 0.0 1014505
12:00+11ююз1014660 0.0 1013717
15:00+13юз912590 0.0 1011955
18:00+10юз710700 0.0 1011592
21:00+6юз478136 0.0 1013180
6 марта, сб
сб600:00+6ююз468285 0.0 1014103
03:00+6зюз338392 0.0 101547
06:00+4с479675 0.0 1016198
09:00+3с8109188 0.1 1018442
12:00+2ссв5877100 1.5 1020785
15:00+5с6846100 1.6 10211491
18:00+4ссз6853100 0.0 10231346
21:00+1с6114273 0.0 1026421
7 марта, вс
вс700:000ссз48490 0.0 1028227
03:00−1ссз34520 0.0 102891
06:00−1сз23550 0.0 102946
09:00+2зсз35440 0.0 10291214
12:00+4з56360 0.0 10281648
15:00+4з78400 0.0 10251447
18:00+3з68480 0.0 10231050
21:000юз410580 0.0 1022237
8 марта, пн
пн800:000юз512650 0.0 1021293
03:00+1юз511732 0.0 1020282
06:00+1юз511802 0.0 1018227
09:00+5зюз697213 0.0 1018796
12:00+7з895440 0.0 10171408
15:00+7з9105529 0.0 10171229
18:00+5з79643 0.0 1016671
21:00+3зюз477930 0.0 1018149